Weather History for Phnom Penh, Cambodia

Change the Weather History Date:

Tuesday, April 15, 2014

  Actual Average Record
Temperature  
Mean Temperature 82 °F -  
Max Temperature 86 °F 92 °F 96 °F (2002)
Min Temperature 78 °F 78 °F 77 °F (1997)
Cooling Degree Days 17    
Growing Degree Days 32 (Base 50)    
Moisture  
Dew Point 74 °F    
Average Humidity 76    
Maximum Humidity 89    
Minimum Humidity 62    
Precipitation  
Precipitation 0.00 in - - ()
Sea Level Pressure  
Sea Level Pressure 29.81 in    
Wind  
Wind Speed 4 mph ()    
Max Wind Speed 12 mph    
Max Gust Speed -    
Visibility 6.0 miles    
Events      
Averages and records for this station are not official NWS values.
T = Trace of Precipitation, MM = Missing Value Source: Averaged Metar Reports

Daily Weather History Graph

Daily Weather History Graph

Search for Another Location

Airport:

Trip Planner

Search our weather history database for the weather conditions in past years. The results will help you decide how hot, cold, wet, or windy it might be!

Date:

Astronomy

Apr. 15, 2014 Rise Set
Actual Time 5:49 AM ICT 6:12 PM ICT
Civil Twilight 5:27 AM ICT 6:33 PM ICT
Nautical Twilight 5:02 AM ICT 6:58 PM ICT
Astronomical Twilight 4:37 AM ICT 7:23 PM ICT
Moon 6:16 PM ICT (4/15) 5:34 AM ICT (4/15)
Length of Visible Light 13h 05m
Length of Day
12h 22m
Full, 100% of the Moon is Illuminated
Apr 15
Full
Apr 15
Full
Apr 22
Last Quarter
Apr 29
New
May 7
First Quarter

Hourly Weather History & Observations

Time (ICT) Temp. Heat Index Dew Point Humidity Pressure Visibility Wind Dir Wind Speed Gust Speed Precip Events Conditions
12:00 AM 80.6 °F 86.2 °F 75.2 °F 84% 29.83 in 5.6 mi SSE 2.3 mph - N/A   Partly Cloudy
12:30 AM 80.6 °F 86.2 °F 75.2 °F 84% 29.80 in 5.6 mi South 2.3 mph - N/A   Partly Cloudy
1:00 AM 80.6 °F 86.2 °F 75.2 °F 84% 29.80 in 5.6 mi SW 2.3 mph - N/A   Partly Cloudy
6:00 AM 78.8 °F - 75.2 °F 89% 29.83 in 5.6 mi SE 3.5 mph - N/A   Partly Cloudy
6:30 AM 80.6 °F 86.2 °F 75.2 °F 84% 29.83 in 6.2 mi SE 4.6 mph - N/A   Partly Cloudy
7:00 AM 80.6 °F 86.2 °F 75.2 °F 84% 29.83 in 6.2 mi ESE 2.3 mph - N/A   Scattered Clouds
7:30 AM 80.6 °F 86.2 °F 75.2 °F 84% 29.86 in 6.2 mi SSE 4.6 mph - N/A   Scattered Clouds
8:00 AM 82.4 °F 89.5 °F 75.2 °F 79% 29.86 in 6.2 mi SSE 3.5 mph - N/A   Scattered Clouds
8:30 AM 82.4 °F 89.5 °F 75.2 °F 79% 29.86 in 6.2 mi SE 8.1 mph - N/A   Scattered Clouds
9:00 AM 82.4 °F 89.5 °F 75.2 °F 79% 29.89 in 6.2 mi ESE 4.6 mph - N/A   Scattered Clouds
9:30 AM 84.2 °F 92.3 °F 75.2 °F 74% 29.89 in 6.2 mi ESE 5.8 mph - N/A   Mostly Cloudy
10:00 AM 84.2 °F 92.3 °F 75.2 °F 74% 29.89 in 5.6 mi East 5.8 mph - N/A   Mostly Cloudy
10:30 AM 84.2 °F 92.3 °F 75.2 °F 74% 29.89 in 5.6 mi SE 5.8 mph - N/A   Mostly Cloudy
11:00 AM 84.2 °F 92.3 °F 75.2 °F 74% 29.86 in 5.6 mi SE 4.6 mph - N/A   Mostly Cloudy
11:30 AM 86.0 °F 95.1 °F 75.2 °F 70% 29.86 in 6.2 mi South 5.8 mph - N/A   Mostly Cloudy
12:00 PM 86.0 °F 95.1 °F 75.2 °F 70% 29.83 in 6.2 mi East 9.2 mph - N/A   Mostly Cloudy
1:00 PM 82.4 °F 89.5 °F 75.2 °F 79% 29.83 in 6.2 mi SE 9.2 mph - N/A   Mostly Cloudy
2:00 PM 82.4 °F 85.4 °F 68.0 °F 62% 29.80 in 6.2 mi SSW 6.9 mph - N/A   Mostly Cloudy
2:30 PM 82.4 °F 86.3 °F 69.8 °F 66% 29.77 in 6.2 mi SSE 4.6 mph - N/A   Mostly Cloudy
3:00 PM 82.4 °F 85.4 °F 68.0 °F 62% 29.74 in 6.2 mi SSW 2.3 mph - N/A   Mostly Cloudy
3:30 PM 82.4 °F 86.3 °F 69.8 °F 66% 29.74 in 6.2 mi South 6.9 mph - N/A   Mostly Cloudy
4:00 PM 84.2 °F 89.6 °F 71.6 °F 66% 29.74 in 6.2 mi South 11.5 mph - N/A   Mostly Cloudy
4:30 PM 84.2 °F 89.6 °F 71.6 °F 66% 29.74 in 6.2 mi South 5.8 mph - N/A   Mostly Cloudy
5:00 PM 84.2 °F 89.6 °F 71.6 °F 66% 29.74 in 6.2 mi SSW 9.2 mph - N/A   Mostly Cloudy
5:30 PM 84.2 °F 89.6 °F 71.6 °F 66% 29.74 in 6.2 mi SSW 4.6 mph - N/A   Mostly Cloudy
6:00 PM 82.4 °F 88.2 °F 73.4 °F 74% 29.74 in 6.2 mi SSW 4.6 mph - N/A   Mostly Cloudy
6:30 PM 82.4 °F 88.2 °F 73.4 °F 74% 29.74 in 5.6 mi SSW 3.5 mph - N/A   Mostly Cloudy
7:00 PM 82.4 °F 88.2 °F 73.4 °F 74% 29.74 in 5.6 mi South 2.3 mph - N/A   Scattered Clouds
7:30 PM 80.6 °F 85.4 °F 73.4 °F 79% 29.74 in 5.6 mi SSE 2.3 mph - N/A   Partly Cloudy
8:00 PM 80.6 °F 85.4 °F 73.4 °F 79% 29.77 in 5.6 mi Calm Calm - N/A   Partly Cloudy
8:30 PM 80.6 °F 85.4 °F 73.4 °F 79% 29.80 in 6.2 mi West 3.5 mph - N/A   Partly Cloudy
9:00 PM 80.6 °F 85.4 °F 73.4 °F 79% 29.83 in 6.2 mi WSW 5.8 mph - N/A   Partly Cloudy
9:30 PM 80.6 °F 85.4 °F 73.4 °F 79% 29.83 in 6.2 mi West 4.6 mph - N/A   Partly Cloudy
10:00 PM 80.6 °F 85.4 °F 73.4 °F 79% 29.83 in 6.2 mi SSW 3.5 mph - N/A   Partly Cloudy
10:30 PM 78.8 °F - 73.4 °F 83% 29.83 in 6.2 mi SSE 4.6 mph - N/A   Partly Cloudy
11:00 PM 78.8 °F - 73.4 °F 83% 29.83 in 6.2 mi SSE 3.5 mph - N/A   Partly Cloudy
11:30 PM 78.8 °F - 75.2 °F 89% 29.83 in 6.2 mi SE 4.6 mph - N/A   Partly Cloudy